Location: Newark
(40.9833°N, 0.0333°W)
Time: 01:02:21
(UTC+00:00)

N. Korean satellite - Visible Passes

Search period start: 20 March 2019 00:00
Search period end: 30 March 2019 00:00
Orbit: 455 x 510 km, 97.2° (Epoch: 18 March)

Date Brightness Start Highest point End Pass type
(mag) Time Alt. Az. Time Alt. Az. Time Alt. Az.
20 Mar 9.4 05:32:00 10° NE 05:34:56 24° E 05:37:53 10° SSE visible
21 Mar 10.1 05:08:29 10° ENE 05:09:58 12° E 05:11:27 10° ESE visible
24 Mar 9.7 05:26:17 10° NE 05:29:03 21° E 05:31:50 10° SE visible
25 Mar 10.5 05:03:21 10° E 05:04:03 10° E 05:04:45 10° ESE visible
28 Mar 9.8 05:20:33 10° NE 05:23:07 18° E 05:25:42 10° SE visible
